SCP
0 0 0 0 0 0 0 0 0 0 0 0 0 0 0 0 0 0 0 0 0 0 0 0 0 0 0
0 0 0 0 0 0 0 0 0 0 0 0 0 0 0 0 0 0 0 0 0 0 0 0 0 0 0
0 0 0 0 0 0 0 0 0 0 0 0 0 0 0 0 0 0 0 0 0 0 0 0 0 0 0
0 0 0 0 0 0 0 0 0 0 0 0 0 0 0 0 0 0 0 0 0 0 0 0 0 0 0
0 0 0 0 0 0 0 0 0 0 0 0 0 0 0 0 0 0 0 0 0 0 0 0 0 0 0
0 0 0 0 0 0 0 0 0 0 0 0 0 0 0 0 0 0 0 0 0 0 0 0 0 0 0
0 0 0 0 0 0 0 0 0 0 0 0 0 0 0 0 0 0 0 0 0 0 0 0 0 0 0
0 0 0 0 0 0 0 0 0 0 0 0 0 0 0 0 0 0 0 0 0 0 0 0 0 0 0
0 0 0 0 0 0 0 0 0 0 0 0 0 0 0 0 0 0 0 0 0 0 0 0 0 0 0
0 0 0 0 0 0 0 0 0 0 0 0 0 0 0 0 0 0 0 0 0 0 0 0 0 0 0
0 0 0 0 0 0 0 0 0 0 0 0 0 0 0 0 0 0 0 0 0 0 0 0 0 0 0
0 0 0 0 0 0 0 0 0 0 0 0 0 0 0 0 0 0 0 0 0 0 0 0 0 0 0
0 0 0 0 0 0 0 0 0 0 0 0 0 0 0 0 0 0 0 0 0 -0 0 0 0 0 0
0 0 0 0 0 0 0 0 0 0 0 0 0 0 0 0 -0 0 0 0 0 -0 0 0 0 0 0
0 0 0 0 0 0 0 0 0 0 0 0 0 0 0 0 0 0 0 0 0 0 0 0 0 0 0
0 0 0 0 0 0 0 0 0 0 0 0 0 0 0 0 0 0 0 0 0 0 0 0 0 0 0
Wind_Speed_500mb
13 7 4 1 3 8 11 13 15 16 16 16 18 19 20 25 22 24 25 26 27 26 26 25 23 18 19
15 9 6 3 3 6 10 12 15 15 15 15 17 20 23 20 22 24 23 26 29 27 24 21 22 21 22
16 12 9 4 2 6 9 12 14 14 14 17 19 22 20 23 26 31 32 29 30 28 28 24 21 19 17
18 14 10 6 2 4 8 11 12 12 15 18 21 21 18 19 25 27 28 30 31 30 28 22 18 15 14
18 16 11 7 3 3 7 10 11 12 15 17 19 17 17 17 24 27 28 33 34 28 24 22 17 15 15
22 17 12 8 4 3 6 9 9 10 13 15 17 14 15 18 25 26 33 35 29 27 27 26 24 16 11
23 18 13 9 6 3 5 7 8 9 11 15 15 13 14 18 23 27 35 36 40 42 42 45 35 27 14
26 20 15 11 6 5 4 6 6 7 9 14 13 12 14 17 22 30 35 37 33 46 50 54 43 38 31
27 22 17 13 9 6 5 6 5 6 8 13 11 10 10 16 19 25 27 31 37 45 48 50 45 41 36
32 26 22 16 12 10 6 7 4 4 6 12 11 11 10 13 16 19 23 28 42 48 49 43 45 44 36
37 31 26 21 16 14 10 8 6 2 4 10 10 11 9 12 18 20 22 24 36 45 45 40 46 39 39
41 37 33 27 22 19 14 11 9 5 1 6 8 10 8 16 17 18 19 21 28 39 40 32 43 40 35
53 47 40 32 26 22 18 14 12 8 4 4 6 8 8 15 17 19 20 16 18 35 38 39 39 43 38
52 44 38 31 28 25 22 19 17 12 7 2 3 6 9 14 17 18 20 19 18 22 28 32 34 37 33
53 50 44 40 36 35 29 23 20 16 11 4 2 5 8 13 16 17 19 18 15 13 13 10 12 16 47
56 56 50 44 37 30 24 24 23 19 14 8 5 5 7 13 15 17 19 18 17 16 19 22 19 34 43
Wind_Direction_500mb
183 188 198 258 357 8 359 354 351 348 343 342 339 337 341 349 1 3 7 0 354 344 330 323 315 297 282
188 194 201 231 341 0 358 350 350 349 344 342 341 347 356 356 14 9 1 2 3 354 339 326 316 305 293
194 205 209 216 288 351 354 349 354 350 344 347 353 4 7 17 14 16 17 9 359 353 349 343 329 314 309
201 206 210 210 258 345 351 351 355 347 348 355 6 4 18 18 14 13 8 0 -0 360 359 353 348 342 324
202 203 207 213 236 322 357 352 355 349 356 0 3 1 23 22 25 22 16 8 8 10 10 7 3 348 331
200 204 206 215 228 310 354 351 350 349 3 4 4 23 28 39 35 27 16 13 20 26 20 14 8 351 342
207 209 207 207 222 280 342 344 340 352 8 5 9 34 40 49 42 31 22 23 26 35 31 31 21 14 12
212 211 209 206 219 261 313 323 331 350 9 5 17 44 48 60 50 38 30 37 41 42 44 39 31 33 30
215 215 213 215 208 240 286 296 314 339 13 2 20 42 58 72 64 49 44 53 57 50 47 49 41 37 34
218 216 216 215 209 225 247 265 276 321 21 5 20 42 62 80 77 60 54 55 54 56 51 54 54 50 55
217 216 217 214 211 218 232 247 241 270 39 14 16 46 43 73 91 71 66 56 58 62 53 58 70 67 53
217 216 216 214 209 214 219 232 228 217 117 29 17 52 40 88 96 77 69 68 66 67 67 58 75 72 63
212 214 215 215 209 212 213 222 222 214 191 63 21 63 62 102 105 87 82 76 91 90 87 68 70 71 67
217 219 220 214 208 209 213 219 216 213 211 138 43 80 79 116 117 101 88 91 96 102 98 90 81 71 81
214 213 212 211 210 211 209 215 213 207 209 194 97 115 103 122 129 114 96 96 92 101 104 90 93 102 83
213 214 215 217 217 214 211 214 211 208 204 199 142 140 132 128 140 128 110 99 90 106 104 84 105 120 111
Wind_Speed_850mb
13 7 4 1 3 8 11 13 15 16 16 16 18 19 20 25 22 24 25 26 27 26 26 25 23 18 19
15 9 6 3 3 6 10 12 15 15 15 15 17 20 23 20 22 24 23 26 29 27 24 21 22 21 22
16 12 9 4 2 6 9 12 14 14 14 17 19 22 20 23 26 31 32 29 30 28 28 24 21 19 17
18 14 10 6 2 4 8 11 12 12 15 18 21 21 18 19 25 27 28 30 31 30 28 22 18 15 14
18 16 11 7 3 3 7 10 11 12 15 17 19 17 17 17 24 27 28 33 34 28 24 22 17 15 15
22 17 12 8 4 3 6 9 9 10 13 15 17 14 15 18 25 26 33 35 29 27 27 26 24 16 11
23 18 13 9 6 3 5 7 8 9 11 15 15 13 14 18 23 27 35 36 40 42 42 45 35 27 14
26 20 15 11 6 5 4 6 6 7 9 14 13 12 14 17 22 30 35 37 33 46 50 54 43 38 31
27 22 17 13 9 6 5 6 5 6 8 13 11 10 10 16 19 25 27 31 37 45 48 50 45 41 36
32 26 22 16 12 10 6 7 4 4 6 12 11 11 10 13 16 19 23 28 42 48 49 43 45 44 36
37 31 26 21 16 14 10 8 6 2 4 10 10 11 9 12 18 20 22 24 36 45 45 40 46 39 39
41 37 33 27 22 19 14 11 9 5 1 6 8 10 8 16 17 18 19 21 28 39 40 32 43 40 35
53 47 40 32 26 22 18 14 12 8 4 4 6 8 8 15 17 19 20 16 18 35 38 39 39 43 38
52 44 38 31 28 25 22 19 17 12 7 2 3 6 9 14 17 18 20 19 18 22 28 32 34 37 33
53 50 44 40 36 35 29 23 20 16 11 4 2 5 8 13 16 17 19 18 15 13 13 10 12 16 47
56 56 50 44 37 30 24 24 23 19 14 8 5 5 7 13 15 17 19 18 17 16 19 22 19 34 43
Wind_Direction_850mb
183 188 198 258 357 8 359 354 351 348 343 342 339 337 341 349 1 3 7 0 354 344 330 323 315 297 282
188 194 201 231 341 0 358 350 350 349 344 342 341 347 356 356 14 9 1 2 3 354 339 326 316 305 293
194 205 209 216 288 351 354 349 354 350 344 347 353 4 7 17 14 16 17 9 359 353 349 343 329 314 309
201 206 210 210 258 345 351 351 355 347 348 355 6 4 18 18 14 13 8 0 -0 360 359 353 348 342 324
202 203 207 213 236 322 357 352 355 349 356 0 3 1 23 22 25 22 16 8 8 10 10 7 3 348 331
200 204 206 215 228 310 354 351 350 349 3 4 4 23 28 39 35 27 16 13 20 26 20 14 8 351 342
207 209 207 207 222 280 342 344 340 352 8 5 9 34 40 49 42 31 22 23 26 35 31 31 21 14 12
212 211 209 206 219 261 313 323 331 350 9 5 17 44 48 60 50 38 30 37 41 42 44 39 31 33 30
215 215 213 215 208 240 286 296 314 339 13 2 20 42 58 72 64 49 44 53 57 50 47 49 41 37 34
218 216 216 215 209 225 247 265 276 321 21 5 20 42 62 80 77 60 54 55 54 56 51 54 54 50 55
217 216 217 214 211 218 232 247 241 270 39 14 16 46 43 73 91 71 66 56 58 62 53 58 70 67 53
217 216 216 214 209 214 219 232 228 217 117 29 17 52 40 88 96 77 69 68 66 67 67 58 75 72 63
212 214 215 215 209 212 213 222 222 214 191 63 21 63 62 102 105 87 82 76 91 90 87 68 70 71 67
217 219 220 214 208 209 213 219 216 213 211 138 43 80 79 116 117 101 88 91 96 102 98 90 81 71 81
214 213 212 211 210 211 209 215 213 207 209 194 97 115 103 122 129 114 96 96 92 101 104 90 93 102 83
213 214 215 217 217 214 211 214 211 208 204 199 142 140 132 128 140 128 110 99 90 106 104 84 105 120 111